METAR LSZS 061720Z AUTO 20002KT CAVOK M08/M11 Q1019=
Diese Daten sind ohne Gewähr und dürfen nicht für die Flugvorbereitung verwendet werden.
Information contained in this website shall not be used for flight operation purposes.